Weather Roundup
Issued by NWS

Home | Current Version | Previous Version | Text Only | Print | Product List | Glossary On
Versions: 1 2 3 4 5 6 7 8 9 10 11 12 13 14 15 16 17 18 19 20 21 22 23 24 25 26 27 28 29 30 31 32 33 34 35 36 37 38 39 40 41 42 43 44 45 46 47 48 49 50
977
NZUS93 KARX 221410
HRRWXR

CURRENT HOURLY OBSERVATIONS ACROSS
MUCH OF THE UPPER MISSISSIPPI VALLEY
NATIONAL WEATHER SERVICE LA CROSSE WI
900 AM CDT THU JUN 22 2017


...SOUTHEAST MINNESOTA...


CITY           SKY/WX    TMP DP  RH WIND       PRES   REMARKS
ROCHESTER      LGT RAIN  72  65  78 S13G25    29.72R
ROCHESTER/MAYO CLOUDY    73  65  74 W5        29.74R
WINONA         CLOUDY    73  64  73 SW8       29.72R
AUSTIN         CLOUDY    72  64  78 S10G16    29.71F
ALBERT LEA     CLOUDY    72  64  78 S8        29.71S
DODGE CENTER   CLOUDY    72  64  78 SE7       29.72F
PRESTON        CLOUDY    71  63  76 SW13      29.74S
OWATONNA       CLOUDY    72  66  83 SE7       29.73R
FARIBAULT      CLOUDY    72  70  94 CALM      29.73R
$$

...ELSEWHERE IN MINNESOTA...


CITY           SKY/WX    TMP DP  RH WIND       PRES   REMARKS
MINNEAPOLIS    CLOUDY    72  65  78 NE8       29.69F
INTNL FALLS    SUNNY     64  52  64 W7        29.67S
DULUTH         CLOUDY    64  55  72 NW3       29.69F
RED WING       CLOUDY    72  66  83 CALM      29.68S
REDWOOD FALLS  CLOUDY    68  62  81 NE7       29.70R
MANKATO        CLOUDY    72  69  90 E5        29.72R
WORTHINGTON    TSTM      63  62  97 NE8       29.77R
FAIRMONT       TSTM      70  66  88 N10       29.71R FOG
$$

...SOUTHWEST WISCONSIN...


CITY           SKY/WX    TMP DP  RH WIND       PRES   REMARKS
LA CROSSE      CLOUDY    75  66  73 S10       29.72R
PRAIRIE DU CHI HVY RAIN  67  63  85 SW13      29.76R
BOSCOBEL       CLOUDY    70  65  84 CALM      29.75R
LONE ROCK      CLOUDY    69  67  93 VRB3      29.75R
PLATTEVILLE    CLOUDY    71  66  84 S13       29.77F
FORT MC COY    CLOUDY    71  67  88 CALM      29.74R
CAMP DOUGLAS   CLOUDY    72  68  88 S6        29.73F
MAUSTON-NEW LI CLOUDY    71  68  88 S5        29.74R
VIROQUA        CLOUDY    71  64  79 SW12      29.75S
WIS DELLS      PTSUNNY   70  67  92 S5        29.76R
$$

...ELSEWHERE IN WISCONSIN...


CITY           SKY/WX    TMP DP  RH WIND       PRES   REMARKS
MILWAUKEE      CLOUDY    78  67  68 SW6       29.79F
MADISON        CLOUDY    70  68  93 N3        29.77R
GREEN BAY      CLOUDY    72  70  93 SW9       29.73S
EAU CLAIRE     LGT RAIN  67  65  93 SE5       29.70F
BLACK RVR FLS  CLOUDY    71  71 100 CALM      29.73R
MEDFORD        CLOUDY    69  65  87 W9        29.74R
WAUSAU         LGT RAIN  69  65  86 W5        29.72S
WIS RAPIDS     CLOUDY    72  68  87 SW9       29.74F
MARSHFIELD     CLOUDY    68  65  90 SW6       29.73S
RICE LAKE      LGT RAIN  64  62  94 CALM      29.76S
$$

...NORTHEAST IOWA...


CITY           SKY/WX    TMP DP  RH WIND       PRES   REMARKS
WATERLOO       CLOUDY    72  62  71 NE7       29.79R
DUBUQUE        MOSUNNY   76  66  71 S13       29.79F
DECORAH        CLOUDY    68  64  88 S13G21    29.74F FOG
MASON CITY     CLOUDY    68  64  87 S7        29.71F
CHARLES CITY   CLOUDY    70  68  94 S10G20    29.77R
OELWEIN        CLOUDY    70  68  94 N5G12     29.85R
$$

...ELSEWHERE IN IOWA...


CITY           SKY/WX    TMP DP  RH WIND       PRES   REMARKS
DES MOINES     LGT RAIN  76  63  64 SW15G24   29.70F
IOWA CITY      CLOUDY    78  68  71 S9        29.78S
FORT DODGE     MOSUNNY   77  61  57 E6        29.69F
MARSHALLTOWN   CLOUDY    75  64  68 SW10      29.73R THUNDER
CEDAR RAPIDS   CLOUDY    76  69  79 S10       29.74F
$$

...NORTHERN ILLINOIS...


CITY           SKY/WX    TMP DP  RH WIND       PRES   REMARKS
CHICAGO-OHARE  CLOUDY    80  67  64 SW13      29.85F
CHICAGO-MIDWAY CLOUDY    79  68  69 SW15      29.87F
MOLINE         SUNNY     78  67  68 S8        29.80F
ROCKFORD       CLOUDY    76  68  76 S13       29.84F
PEORIA         PTSUNNY   77  71  82 S9        29.85F
$$

NOTE: "FAIR" INDICATES FEW OR NO CLOUDS BELOW 12,000 FEET WITH NO
SIGNIFICANT WEATHER AND/OR OBSTRUCTIONS TO VISIBILITY. WIND
SPEEDS ARE IN MILES-PER-HOUR.




USA.gov is the U.S. government's official web portal to all federal, state and local government web resources and services.